Location: Ravensburg
(47.7866°N, 9.6124°E)
Time: 21:59:01
(UTC+01:00)

STARS - Visible Passes

Search period start: 16 March 2026 00:00
Search period end: 26 March 2026 00:00
Orbit: 575 x 589 km, 98.1° (Epoch: 16 March)

Date Brightness Start Highest point End Pass type
(mag) Time Alt. Az. Time Alt. Az. Time Alt. Az.
16 Mar ? 03:21:27 10° N 03:21:47 12° N 03:21:47 12° N visible
17 Mar ? 03:27:11 10° N 03:27:36 12° NNW 03:27:36 12° NNW visible
18 Mar ? 03:32:54 10° N 03:33:24 12° NNW 03:33:24 12° NNW visible
19 Mar ? 02:02:46 10° NNE 02:02:49 10° NNE 02:02:49 10° NNE visible
19 Mar ? 03:38:38 10° NNW 03:39:12 13° NNW 03:39:12 13° NNW visible
20 Mar ? 02:08:19 10° NNE 02:08:36 12° NNE 02:08:36 12° NNE visible
20 Mar ? 03:44:24 10° NNW 03:45:00 13° NNW 03:45:00 13° NNW visible
21 Mar ? 02:13:53 10° NNE 02:14:23 13° NNE 02:14:23 13° NNE visible
21 Mar ? 03:50:10 10° NNW 03:50:46 12° NNW 03:50:46 12° NNW visible
22 Mar ? 02:19:27 10° NNE 02:20:10 15° NNE 02:20:10 15° NNE visible
22 Mar ? 03:55:57 10° NNW 03:56:33 12° NNW 03:56:33 12° NNW visible
23 Mar ? 02:25:01 10° NNE 02:25:57 16° NNE 02:25:57 16° NNE visible
23 Mar ? 04:01:48 10° NNW 04:02:19 12° NW 04:02:19 12° NW visible
24 Mar ? 02:30:35 10° NNE 02:31:42 18° NNE 02:31:42 18° NNE visible
24 Mar ? 04:07:41 10° NNW 04:08:05 11° NW 04:08:05 11° NW visible
25 Mar ? 02:36:09 10° NNE 02:37:28 20° NNE 02:37:28 20° NNE visible
25 Mar ? 04:13:43 10° NW 04:13:50 10° NW 04:13:50 10° NW visible
